Regional Weather Roundup
Issued by NWS Charleston, WV

Home | Current Version | Previous Version | Graphics & Text | Print | Product List | Glossary On
Versions: 1 2 3 4 5 6 7 8 9 10 11 12 13 14 15 16 17 18 19 20 21 22 23 24 25 26 27 28 29 30 31 32 33 34 35 36 37 38 39 40 41 42 43 44 45 46 47 48 49 50
000
ASUS41 KRLX 100610
RWRRLX
West Virginia Regional Weather Roundup
National Weather Service Charleston WV
100 AM EST WED FEB 10 2016

Note: "fair" indicates few or no clouds below 12,000 feet with no
significant weather and/or obstructions to visibility.

WVZ003-100700-
Northern Panhandle of West Virginia

CITY           SKY/WX    TMP DP  RH WIND       PRES   REMARKS
WHEELING       LGT SNOW  24  18  77 W10       29.72S
$$

WVZ009-100700-
Northwest West Virginia

CITY           SKY/WX    TMP DP  RH WIND       PRES   REMARKS
PARKERSBURG    CLOUDY    23  18  81 W8        29.85S
$$

WVZ006-100700-
Western West Virginia

CITY           SKY/WX    TMP DP  RH WIND       PRES   REMARKS
HUNTINGTON     LGT SNOW  22  17  81 W7        29.89S
$$

WVZ015-100700-
West Central West Virginia

CITY           SKY/WX    TMP DP  RH WIND       PRES   REMARKS
CHARLESTON     LGT SNOW  23  16  74 W12G21    29.86S
$$

WVZ022-031-100700-
North Central West Virginia

CITY           SKY/WX    TMP DP  RH WIND       PRES   REMARKS
CLARKSBURG     LGT SNOW  22  19  89 W12       29.77S
MORGANTOWN     CLOUDY    22  17  81 SW7       29.75S HAZE
$$

WVZ025-035-042-045-100700-
Southern West Virginia

CITY           SKY/WX    TMP DP  RH WIND       PRES   REMARKS
BECKLEY        LGT SNOW  17  12  80 W10       29.76R WCI   5
LOGAN          LGT SNOW  19  16  86 W7G15     29.84S
BLUEFIELD      LGT SNOW  15  12  88 W12G20    29.74F FOG     WCI   2
LEWISBURG      LGT SNOW  22  16  78 W6        29.74S
$$

WVZ047-100700-
Northern Mountains of West Virginia

CITY           SKY/WX    TMP DP  RH WIND       PRES   REMARKS
ELKINS         LGT SNOW  20  13  74 SW8       29.73F
$$

WVZ052-100700-
Eastern Panhandle of West Virginia

CITY           SKY/WX    TMP DP  RH WIND       PRES   REMARKS
MARTINSBURG    CLOUDY    28  17  63 W9        29.70S
PETERSBURG     MOCLDY    28  12  51 CALM      29.73S
$$



USA.gov is the U.S. government's official web portal to all federal, state and local government web resources and services.